Weather History for Meriden, CT

Change the Weather History Date:

Sunday, April 6, 2014

  Actual Average (KHVN) Record (KHVN)
Temperature  
Mean Temperature 42 °F -  
Max Temperature 60 °F 51 °F 66 °F (1980)
Min Temperature 25 °F 37 °F 20 °F (1982)
Degree Days  
Heating Degree Days 23    
Moisture  
Dew Point 20 °F    
Average Humidity 46    
Maximum Humidity 88    
Minimum Humidity 16    
Precipitation  
Precipitation 0.00 in - - ()
Sea Level Pressure  
Sea Level Pressure 30.14 in    
Wind  
Wind Speed 6 mph (NW)    
Max Wind Speed 14 mph    
Max Gust Speed 20 mph    
Visibility 10 miles    
Events      
Averages and records for this station are not official NWS values.
T = Trace of Precipitation, MM = Missing Value Source: NWS Daily Summary

Daily Weather History Graph

Daily Weather History Graph

Search for Another Location

Airport:

Trip Planner

Search our weather history database for the weather conditions in past years. The results will help you decide how hot, cold, wet, or windy it might be!

Date:

Astronomy

Apr. 06, 2014 Rise Set
Actual Time 6:26 AM EDT 7:22 PM EDT
Civil Twilight 5:57 AM EDT 7:50 PM EDT
Nautical Twilight 5:24 AM EDT 8:23 PM EDT
Astronomical Twilight 4:49 AM EDT 8:58 PM EDT
Moon 11:22 AM EDT (4/6) 1:18 AM EDT (4/6)
Length of Visible Light 13h 52m
Length of Day
12h 55m
Waxing Crescent, 43% of the Moon is Illuminated
Apr 6
Waxing Crescent
Apr 7
First Quarter
Apr 15
Full
Apr 22
Last Quarter
Apr 29
New

Hourly Weather History & Observations

Time (EDT) Temp. Windchill Dew Point Humidity Pressure Visibility Wind Dir Wind Speed Gust Speed Precip Events Conditions
12:53 AM 37.9 °F 30.5 °F 19.9 °F 48% 30.04 in 10.0 mi NW 11.5 mph - N/A   Clear
1:53 AM 37.0 °F 32.4 °F 21.0 °F 52% 30.04 in 10.0 mi WNW 5.8 mph - N/A   Clear
2:53 AM 30.9 °F - 21.9 °F 69% 30.05 in 10.0 mi Calm Calm - N/A   Clear
3:53 AM 30.0 °F - 21.9 °F 72% 30.06 in 10.0 mi Calm Calm - N/A   Clear
4:53 AM 28.9 °F - 23.0 °F 78% 30.09 in 10.0 mi Calm Calm - N/A   Clear
5:53 AM 25.0 °F - 21.9 °F 88% 30.12 in 10.0 mi Calm Calm - N/A   Clear
6:53 AM 27.0 °F - 21.9 °F 81% 30.16 in 10.0 mi Calm Calm - N/A   Clear
7:53 AM 36.0 °F 32.1 °F 24.1 °F 62% 30.17 in 10.0 mi NNW 4.6 mph - N/A   Clear
8:53 AM 39.0 °F 31.0 °F 19.9 °F 46% 30.18 in 10.0 mi NW 13.8 mph 19.6 mph N/A   Clear
9:53 AM 43.0 °F 36.8 °F 19.0 °F 38% 30.18 in 10.0 mi NNW 11.5 mph - N/A   Clear
10:53 AM 46.0 °F 40.2 °F 16.0 °F 30% 30.17 in 10.0 mi NW 12.7 mph 19.6 mph N/A   Clear
11:53 AM 48.9 °F - 14.0 °F 25% 30.16 in 10.0 mi NW 11.5 mph - N/A   Clear
12:53 PM 52.0 °F - 16.0 °F 24% 30.14 in 10.0 mi NW 10.4 mph - N/A   Clear
1:53 PM 55.0 °F - 15.1 °F 21% 30.14 in 10.0 mi North - - N/A   Clear
2:53 PM 57.0 °F - 12.9 °F 18% 30.13 in 10.0 mi WSW 6.9 mph - N/A   Clear
3:53 PM 59.0 °F - 12.0 °F 16% 30.14 in 10.0 mi Variable 6.9 mph - N/A   Clear
4:53 PM 59.0 °F - 14.0 °F 17% 30.13 in 10.0 mi WNW 8.1 mph - N/A   Clear
5:53 PM 59.0 °F - 16.0 °F 19% 30.11 in 10.0 mi WNW 6.9 mph - N/A   Clear
6:53 PM 57.0 °F - 19.0 °F 23% 30.12 in 10.0 mi NW 6.9 mph - N/A   Clear
7:53 PM 48.9 °F - 26.1 °F 41% 30.14 in 10.0 mi Calm Calm - N/A   Clear
8:53 PM 43.0 °F 39.5 °F 28.0 °F 56% 30.17 in 10.0 mi SSE 5.8 mph - N/A   Clear
9:53 PM 44.1 °F - 26.1 °F 49% 30.20 in 10.0 mi Calm Calm - N/A   Clear
10:53 PM 39.0 °F - 27.0 °F 62% 30.21 in 10.0 mi Calm Calm - N/A   Clear
11:53 PM 37.0 °F - 28.0 °F 70% 30.20 in 10.0 mi Calm Calm - N/A   Clear